Year,Month,Day,Hour,Minute,Value (Times are PST for temperature in C)
2011,04,20,00,00,5.90
2011,04,20,00,01,5.90
2011,04,20,00,02,5.90
2011,04,20,10,20,6.70
2011,04,20,10,21,6.70
2011,04,20,10,22,6.80
2011,04,20,10,23,6.80
2011,04,20,10,24,6.80
2011,04,20,10,25,6.80
2011,04,20,10,26,6.80
2011,04,20,10,27,6.80
2011,04,20,10,28,6.80
2011,04,20,10,29,6.90
2011,04,20,10,30,7.00
2011,04,20,10,31,7.10
2011,04,20,10,32,7.20
2011,04,20,10,33,7.30
2011,04,20,10,34,7.40
2011,04,20,10,35,7.50
2011,04,20,10,36,7.50
2011,04,20,10,37,7.50
2011,04,20,10,38,7.50
2011,04,20,10,39,7.50
2011,04,20,10,40,7.60
2011,04,20,10,41,7.60
2011,04,20,10,42,7.70
2011,04,20,10,43,7.70
2011,04,20,10,44,7.70
2011,04,20,10,45,7.60
2011,04,20,10,46,7.50
2011,04,20,10,47,7.40
2011,04,20,10,48,7.20
2011,04,20,10,49,7.10
2011,04,20,10,50,7.00
2011,04,20,10,51,7.00
2011,04,20,10,52,7.00
2011,04,20,10,53,7.00
2011,04,20,10,54,7.10
2011,04,20,10,55,7.00
2011,04,20,10,56,7.00
2011,04,20,10,57,7.00
2011,04,20,10,58,7.00
2011,04,20,10,59,7.00
2011,04,20,11,00,7.00
2011,04,20,11,01,6.90
2011,04,20,11,02,6.90
2011,04,20,11,03,7.00
2011,04,20,11,04,7.00
2011,04,20,11,05,7.10
2011,04,20,11,06,7.20
2011,04,20,11,07,7.10
2011,04,20,11,08,7.20
2011,04,20,11,09,7.10
2011,04,20,11,10,7.20
2011,04,20,11,11,7.30
2011,04,20,11,12,7.30
2011,04,20,11,13,7.40
2011,04,20,11,14,7.30
2011,04,20,11,15,7.20
2011,04,20,11,16,7.20
2011,04,20,11,17,7.30
2011,04,20,11,18,7.20
2011,04,20,11,19,7.30
2011,04,20,11,20,7.40
2011,04,20,11,21,7.50
2011,04,20,11,22,7.40
2011,04,20,11,23,7.30
2011,04,20,11,24,7.40
2011,04,20,11,25,7.50
2011,04,20,11,26,7.60
2011,04,20,11,27,7.70
2011,04,20,11,28,7.70
2011,04,20,11,29,7.60
2011,04,20,11,30,7.50
2011,04,20,11,31,7.40
2011,04,20,11,32,7.40
2011,04,20,11,33,7.30
2011,04,20,11,34,7.30
2011,04,20,11,35,7.30
2011,04,20,11,36,7.20
2011,04,20,11,37,7.10
2011,04,20,11,38,7.10
2011,04,20,11,39,7.10
2011,04,20,11,40,7.30
2011,04,20,11,41,7.30
2011,04,20,11,42,7.30
2011,04,20,11,43,7.40
2011,04,20,11,44,7.50
2011,04,20,11,45,7.40
2011,04,20,11,46,7.30
2011,04,20,11,47,7.20
2011,04,20,11,48,7.10
2011,04,20,11,49,7.10
2011,04,20,11,50,7.00
2011,04,20,11,51,7.10
2011,04,20,11,52,7.20
2011,04,20,11,53,7.30
2011,04,20,11,54,7.30
2011,04,20,11,55,7.30
2011,04,20,11,56,7.20
2011,04,20,11,57,7.20
2011,04,20,11,58,7.20
2011,04,20,11,59,7.20
2011,04,20,12,00,7.20
2011,04,20,12,01,7.20
2011,04,20,12,02,7.30
2011,04,20,12,03,7.40
2011,04,20,12,04,7.40
2011,04,20,12,05,7.50
2011,04,20,12,06,7.60
2011,04,20,12,07,7.60
2011,04,20,12,08,7.50
2011,04,20,12,09,7.40
2011,04,20,12,10,7.40
2011,04,20,12,11,7.50
2011,04,20,12,12,7.60
2011,04,20,12,13,7.60
2011,04,20,12,14,7.50
2011,04,20,12,15,7.50
2011,04,20,12,16,7.50
2011,04,20,12,17,7.60
2011,04,20,12,18,7.60
2011,04,20,12,19,7.50
2011,04,20,12,20,7.60
2011,04,20,12,21,7.70
2011,04,20,12,22,7.80
2011,04,20,12,23,7.80
2011,04,20,12,24,7.80
2011,04,20,12,25,7.80
2011,04,20,12,26,7.70
2011,04,20,12,27,7.70
2011,04,20,12,28,7.90
2011,04,20,12,29,8.00
2011,04,20,12,30,7.90
2011,04,20,12,31,7.90
2011,04,20,12,32,7.80
2011,04,20,12,33,7.60
2011,04,20,12,34,7.60
2011,04,20,12,35,7.60
2011,04,20,12,36,7.70
2011,04,20,12,37,7.60
2011,04,20,12,38,7.60
2011,04,20,12,39,7.70
2011,04,20,12,40,7.70
2011,04,20,12,41,7.70
2011,04,20,12,42,7.60
2011,04,20,12,43,7.50
2011,04,20,12,44,7.40
2011,04,20,12,45,7.40
2011,04,20,12,46,7.40
2011,04,20,12,47,7.40
2011,04,20,12,48,7.40
2011,04,20,12,49,7.30
2011,04,20,12,50,7.40
2011,04,20,12,51,7.50
2011,04,20,12,52,7.60
2011,04,20,12,53,7.70
2011,04,20,12,54,7.80
2011,04,20,12,55,7.80
2011,04,20,12,56,7.80
2011,04,20,12,57,7.80
2011,04,20,12,58,7.70
2011,04,20,12,59,7.60
2011,04,20,13,00,7.50
2011,04,20,13,01,7.40
2011,04,20,13,02,7.40
2011,04,20,13,03,7.40
2011,04,20,13,04,7.30
2011,04,20,13,05,7.30
2011,04,20,13,06,7.30
2011,04,20,13,07,7.40
2011,04,20,13,08,7.60
2011,04,20,13,09,7.80
2011,04,20,13,10,7.80
2011,04,20,13,11,7.80
2011,04,20,13,12,7.80
2011,04,20,13,13,7.90
2011,04,20,13,14,7.80
2011,04,20,13,15,7.60
2011,04,20,13,16,7.50
2011,04,20,13,17,7.50
2011,04,20,13,18,7.50
2011,04,20,13,19,7.40
2011,04,20,13,20,7.40
2011,04,20,13,21,7.40
2011,04,20,13,22,7.50
2011,04,20,13,23,7.60
2011,04,20,13,24,7.60
2011,04,20,13,25,7.60
2011,04,20,13,26,7.60
2011,04,20,13,27,7.60
2011,04,20,13,28,7.60
2011,04,20,13,29,7.60
2011,04,20,13,30,7.60
2011,04,20,13,31,7.60
2011,04,20,13,32,7.60
2011,04,20,13,33,7.60
2011,04,20,13,34,7.60
2011,04,20,13,35,7.50
2011,04,20,13,36,7.50
2011,04,20,13,37,7.50
2011,04,20,13,38,7.50
2011,04,20,13,39,7.50
2011,04,20,13,40,7.40
2011,04,20,13,41,7.30
2011,04,20,13,42,7.30
2011,04,20,13,43,7.30
2011,04,20,13,44,7.30
2011,04,20,13,45,7.30
2011,04,20,13,46,7.40
2011,04,20,13,47,7.40
2011,04,20,13,48,7.40
2011,04,20,13,49,7.40
2011,04,20,13,50,7.40
2011,04,20,13,51,7.40
2011,04,20,13,52,7.40
2011,04,20,13,53,7.30
2011,04,20,13,54,7.50
2011,04,20,13,55,7.50
2011,04,20,13,56,7.50
2011,04,20,13,57,7.60
2011,04,20,13,58,7.80
2011,04,20,13,59,7.80
2011,04,20,14,00,7.80
2011,04,20,14,01,7.90
2011,04,20,14,02,7.80
2011,04,20,14,03,7.90
2011,04,20,14,04,8.00
2011,04,20,14,05,8.00
2011,04,20,14,06,7.90
2011,04,20,14,07,7.80
2011,04,20,14,08,7.80
2011,04,20,14,09,7.70
2011,04,20,14,10,7.70
2011,04,20,14,11,7.70
2011,04,20,14,12,7.80
2011,04,20,14,13,7.80
2011,04,20,14,14,7.90
2011,04,20,14,15,7.90
2011,04,20,14,16,7.90
2011,04,20,14,17,8.00
2011,04,20,14,18,8.00
2011,04,20,14,19,8.10
2011,04,20,14,20,8.00
2011,04,20,14,21,7.90
2011,04,20,14,22,7.80
2011,04,20,14,23,7.80
2011,04,20,14,24,7.80
2011,04,20,14,25,7.80
2011,04,20,14,26,7.90
2011,04,20,14,27,7.80
2011,04,20,14,28,7.80
2011,04,20,14,29,8.00
2011,04,20,14,30,8.10
2011,04,20,14,31,8.20
2011,04,20,14,32,8.30
2011,04,20,14,33,8.30
2011,04,20,14,34,8.40
2011,04,20,14,35,8.50
2011,04,20,14,36,8.60
2011,04,20,14,37,8.70
2011,04,20,14,38,8.50
2011,04,20,14,39,8.40
2011,04,20,14,40,8.40
2011,04,20,14,41,8.50
2011,04,20,14,42,8.60
2011,04,20,14,43,8.70
2011,04,20,14,44,8.70
2011,04,20,14,45,8.70
2011,04,20,14,46,8.70
2011,04,20,14,47,8.70
2011,04,20,14,48,8.60
2011,04,20,14,49,8.60
2011,04,20,14,50,8.60
2011,04,20,14,51,8.60
2011,04,20,14,52,8.40
2011,04,20,14,53,8.30
2011,04,20,14,54,8.20
2011,04,20,14,55,8.30
2011,04,20,14,56,8.20
2011,04,20,14,57,8.30
2011,04,20,14,58,8.40
2011,04,20,14,59,8.50
2011,04,20,15,00,8.60
2011,04,20,15,01,8.70
2011,04,20,15,02,8.80
2011,04,20,15,03,8.90
2011,04,20,15,04,8.90
2011,04,20,15,05,8.90
2011,04,20,15,06,9.10
2011,04,20,15,07,9.20
2011,04,20,15,08,9.10
2011,04,20,15,09,9.10
2011,04,20,15,10,9.20
2011,04,20,15,11,9.20
2011,04,20,15,12,9.10
2011,04,20,15,13,9.00
2011,04,20,15,14,9.00
2011,04,20,15,15,9.20
2011,04,20,15,16,9.30
2011,04,20,15,17,9.30
2011,04,20,15,18,9.30
2011,04,20,15,19,9.20
2011,04,20,15,20,9.20
2011,04,20,15,21,9.20
2011,04,20,15,22,9.20
2011,04,20,15,23,9.20
2011,04,20,15,24,9.20
2011,04,20,15,25,9.30
2011,04,20,15,26,9.50
2011,04,20,15,27,9.50
2011,04,20,15,28,9.60
2011,04,20,15,29,9.80
2011,04,20,15,30,9.90
2011,04,20,15,31,9.90
2011,04,20,15,32,10.10
2011,04,20,15,33,10.20
2011,04,20,15,34,10.10
2011,04,20,15,35,10.00
2011,04,20,15,36,9.90
2011,04,20,15,37,9.90
2011,04,20,15,38,9.90
2011,04,20,15,39,9.80
2011,04,20,15,40,9.80
2011,04,20,15,41,9.80
2011,04,20,15,42,9.80
2011,04,20,15,43,9.70
2011,04,20,15,44,9.70
2011,04,20,15,45,9.70
2011,04,20,15,46,9.70
2011,04,20,15,47,9.70
2011,04,20,15,48,9.80
2011,04,20,15,49,9.80
2011,04,20,15,50,9.80
2011,04,20,15,51,9.80
2011,04,20,15,52,9.80
2011,04,20,15,53,9.70
2011,04,20,15,54,9.70
2011,04,20,15,55,9.70
2011,04,20,15,56,9.70
2011,04,20,15,57,9.70
2011,04,20,15,58,9.70
2011,04,20,15,59,9.70
2011,04,20,16,00,9.70
2011,04,20,16,01,9.70
2011,04,20,16,02,9.70
2011,04,20,16,03,9.70
2011,04,20,16,04,9.80
2011,04,20,16,05,9.90
2011,04,20,16,06,10.00
2011,04,20,16,07,10.10
2011,04,20,16,08,10.10
2011,04,20,16,09,10.10
2011,04,20,16,10,10.00
2011,04,20,16,11,10.00
2011,04,20,16,12,10.10
2011,04,20,16,13,10.10
2011,04,20,16,14,10.10
2011,04,20,16,15,10.10
2011,04,20,16,16,10.10
2011,04,20,16,17,10.10
2011,04,20,16,18,10.20
2011,04,20,16,19,10.20
2011,04,20,16,20,10.20
2011,04,20,16,21,10.30
2011,04,20,16,22,10.30
2011,04,20,16,23,10.40
2011,04,20,16,24,10.40
2011,04,20,16,25,10.30
2011,04,20,16,26,10.30
2011,04,20,16,27,10.40
2011,04,20,16,28,10.30
2011,04,20,16,29,10.40
2011,04,20,16,30,10.40
2011,04,20,16,31,10.40
2011,04,20,16,32,10.40
2011,04,20,16,33,10.40
2011,04,20,16,34,10.40
2011,04,20,16,35,10.40
2011,04,20,16,36,10.40
2011,04,20,16,37,10.40
2011,04,20,16,38,10.60
2011,04,20,16,39,10.60
2011,04,20,16,40,10.60
2011,04,20,16,41,10.40
2011,04,20,16,42,10.40
2011,04,20,16,43,10.50
2011,04,20,16,44,10.60
2011,04,20,16,45,10.70
2011,04,20,16,46,10.70
2011,04,20,16,47,10.70
2011,04,20,16,48,10.70
2011,04,20,16,49,10.70
2011,04,20,16,50,10.70
2011,04,20,16,51,10.80
2011,04,20,16,52,10.90
2011,04,20,16,53,10.90
2011,04,20,16,54,10.90
2011,04,20,16,55,10.90
2011,04,20,16,56,10.90
2011,04,20,16,57,10.80
2011,04,20,16,58,10.80
2011,04,20,16,59,10.70
2011,04,20,17,00,10.60
2011,04,20,17,01,10.60
2011,04,20,17,02,10.60
2011,04,20,17,03,10.70
2011,04,20,17,04,10.70
2011,04,20,17,05,10.80
2011,04,20,17,06,10.90
2011,04,20,17,07,10.90
2011,04,20,17,08,11.10
2011,04,20,17,09,11.00
2011,04,20,17,10,10.90
2011,04,20,17,11,10.90
2011,04,20,17,12,10.80
2011,04,20,17,13,10.80
2011,04,20,17,14,10.70
2011,04,20,17,15,10.60
2011,04,20,17,16,10.60
2011,04,20,17,17,10.50
2011,04,20,17,18,10.40
2011,04,20,17,19,10.30
2011,04,20,17,20,10.20
2011,04,20,17,21,10.20
2011,04,20,17,22,10.10
2011,04,20,17,23,10.10
2011,04,20,17,24,10.10
2011,04,20,17,25,10.10
2011,04,20,17,26,10.10
2011,04,20,17,27,10.10
2011,04,20,17,28,10.10
2011,04,20,17,29,9.90
2011,04,20,17,30,9.90
2011,04,20,17,31,9.90
2011,04,20,17,32,9.80
2011,04,20,17,33,9.70
2011,04,20,17,34,9.70
2011,04,20,17,35,9.70
2011,04,20,17,36,9.70
2011,04,20,17,37,9.70
2011,04,20,17,38,9.70
2011,04,20,17,39,9.70
2011,04,20,17,40,9.70
2011,04,20,17,41,9.70
2011,04,20,17,42,9.70
2011,04,20,17,43,9.70
2011,04,20,17,44,9.70
2011,04,20,17,45,9.70
2011,04,20,17,46,9.70
2011,04,20,17,47,9.70
2011,04,20,17,48,9.70
2011,04,20,17,49,9.70
2011,04,20,17,50,9.70
2011,04,20,17,51,9.50
2011,04,20,17,52,9.40
2011,04,20,17,53,9.30
2011,04,20,17,54,9.20
2011,04,20,17,55,9.20
2011,04,20,17,56,9.10
2011,04,20,17,57,9.00
2011,04,20,17,58,8.90
2011,04,20,17,59,8.90
2011,04,20,18,00,8.90
2011,04,20,18,01,8.80
2011,04,20,18,02,8.80
2011,04,20,18,03,8.80
2011,04,20,18,04,8.80
2011,04,20,18,05,8.80
2011,04,20,18,06,8.90
2011,04,20,18,07,8.90
2011,04,20,18,08,8.90
2011,04,20,18,09,8.90
2011,04,20,18,10,8.90
2011,04,20,18,11,9.00
2011,04,20,18,12,8.90
2011,04,20,18,13,8.90
2011,04,20,18,14,8.90
2011,04,20,18,15,8.90
2011,04,20,18,16,8.80
2011,04,20,18,17,8.80
2011,04,20,18,18,8.70
2011,04,20,18,19,8.70
2011,04,20,18,20,8.70
2011,04,20,18,21,8.70
2011,04,20,18,22,8.70
2011,04,20,18,23,8.70
2011,04,20,18,24,8.70
2011,04,20,18,25,8.70
2011,04,20,18,26,8.70
2011,04,20,18,27,8.70
2011,04,20,18,28,8.70
2011,04,20,18,29,8.70
2011,04,20,18,30,8.70
2011,04,20,18,31,8.70
2011,04,20,18,32,8.70
2011,04,20,18,33,8.70
2011,04,20,18,34,8.60
2011,04,20,18,35,8.60
2011,04,20,18,36,8.60
2011,04,20,18,37,8.60
2011,04,20,18,38,8.60
2011,04,20,18,39,8.60
2011,04,20,18,40,8.60
2011,04,20,18,41,8.50
2011,04,20,18,42,8.50
2011,04,20,18,43,8.50
2011,04,20,18,44,8.50
2011,04,20,18,45,8.50
2011,04,20,18,46,8.50
2011,04,20,18,47,8.50
2011,04,20,18,48,8.50
2011,04,20,18,49,8.50
2011,04,20,18,50,8.50
2011,04,20,18,51,8.40
2011,04,20,18,52,8.50
2011,04,20,18,53,8.50
2011,04,20,18,54,8.50
2011,04,20,18,55,8.50
2011,04,20,18,56,8.50
2011,04,20,18,57,8.50
2011,04,20,18,58,8.50
2011,04,20,18,59,8.50
2011,04,20,19,00,8.50
2011,04,20,19,01,8.50
2011,04,20,19,02,8.60
2011,04,20,19,03,8.60
2011,04,20,19,04,8.60
2011,04,20,19,05,8.60
2011,04,20,19,06,8.70
2011,04,20,19,07,8.70
2011,04,20,19,08,8.70
2011,04,20,19,09,8.70
2011,04,20,19,10,8.70
2011,04,20,19,11,8.70
2011,04,20,19,12,8.70
2011,04,20,19,13,8.70
2011,04,20,19,14,8.70
2011,04,20,19,15,8.70
2011,04,20,19,16,8.70
2011,04,20,19,17,8.70
2011,04,20,19,18,8.70
2011,04,20,19,19,8.70
2011,04,20,19,20,8.70
2011,04,20,19,21,8.70
2011,04,20,19,22,8.70
2011,04,20,19,23,8.70
2011,04,20,19,24,8.70
2011,04,20,19,25,8.70
2011,04,20,19,26,8.60
2011,04,20,19,27,8.60
2011,04,20,19,28,8.60
2011,04,20,19,29,8.50
2011,04,20,19,30,8.50
2011,04,20,19,31,8.40
2011,04,20,19,32,8.40
2011,04,20,19,33,8.30
2011,04,20,19,34,8.30
2011,04,20,19,35,8.30
2011,04,20,19,36,8.30
2011,04,20,19,37,8.30
2011,04,20,19,38,8.20
2011,04,20,19,39,8.20
2011,04,20,19,40,8.20
2011,04,20,19,41,8.20
2011,04,20,19,42,8.10
2011,04,20,19,43,8.00
2011,04,20,19,44,8.00
2011,04,20,19,45,7.90
2011,04,20,19,46,7.90
2011,04,20,19,47,7.80
2011,04,20,19,48,7.80
2011,04,20,19,49,7.80
2011,04,20,19,50,7.80
2011,04,20,19,51,7.70
2011,04,20,19,52,7.70
2011,04,20,19,53,7.70
2011,04,20,19,54,7.60
2011,04,20,19,55,7.60
2011,04,20,19,56,7.50
2011,04,20,19,57,7.50
2011,04,20,19,58,7.50
2011,04,20,19,59,7.40
2011,04,20,20,00,7.40
2011,04,20,20,01,7.40
2011,04,20,20,02,7.30
2011,04,20,20,03,7.30
2011,04,20,20,04,7.30
2011,04,20,20,05,7.30
2011,04,20,20,06,7.30
2011,04,20,20,07,7.30
2011,04,20,20,08,7.30
2011,04,20,20,09,7.30
2011,04,20,20,10,7.30
2011,04,20,20,11,7.20
2011,04,20,20,12,7.20
2011,04,20,20,13,7.10
2011,04,20,20,14,7.10
2011,04,20,20,15,7.10
2011,04,20,20,16,7.00
2011,04,20,20,17,7.00
2011,04,20,20,18,7.00
2011,04,20,20,19,6.90
2011,04,20,20,20,6.90
2011,04,20,20,21,6.90
2011,04,20,20,22,6.90
2011,04,20,20,23,6.90
2011,04,20,20,24,6.80
2011,04,20,20,25,6.80
2011,04,20,20,26,6.80
2011,04,20,20,27,6.80
2011,04,20,20,28,6.80
2011,04,20,20,29,6.80
2011,04,20,20,30,6.70
2011,04,20,20,31,6.70
2011,04,20,20,32,6.70
2011,04,20,20,33,6.60
2011,04,20,20,34,6.60
2011,04,20,20,35,6.60
2011,04,20,20,36,6.60
2011,04,20,20,37,6.60
2011,04,20,20,38,6.60
2011,04,20,20,39,6.50
2011,04,20,20,40,6.40
2011,04,20,20,41,6.40
2011,04,20,20,42,6.40
2011,04,20,20,43,6.40
2011,04,20,20,44,6.40
2011,04,20,20,45,6.40
2011,04,20,20,46,6.40
2011,04,20,20,47,6.40
2011,04,20,20,48,6.40
2011,04,20,20,49,6.40
2011,04,20,20,50,6.40
2011,04,20,20,51,6.30
2011,04,20,20,52,6.30
2011,04,20,20,53,6.30
2011,04,20,20,54,6.30
2011,04,20,20,55,6.30
2011,04,20,20,56,6.30
2011,04,20,20,57,6.30
2011,04,20,20,58,6.30
2011,04,20,20,59,6.30
2011,04,20,21,00,6.30
2011,04,20,21,01,6.30
2011,04,20,21,02,6.20
2011,04,20,21,03,6.20
2011,04,20,21,04,6.20
2011,04,20,21,05,6.20
2011,04,20,21,06,6.20
2011,04,20,21,07,6.20
2011,04,20,21,08,6.20
2011,04,20,21,09,6.20
2011,04,20,21,10,6.20
2011,04,20,21,11,6.20
2011,04,20,21,12,6.20
2011,04,20,21,13,6.20
2011,04,20,21,14,6.20
2011,04,20,21,15,6.20
2011,04,20,21,16,6.20
2011,04,20,21,17,6.20
2011,04,20,21,18,6.20
2011,04,20,21,19,6.20
2011,04,20,21,20,6.20
2011,04,20,21,21,6.20
2011,04,20,21,22,6.20
2011,04,20,21,23,6.20
2011,04,20,21,24,6.20
2011,04,20,21,25,6.20
2011,04,20,21,26,6.10
2011,04,20,21,27,6.10
2011,04,20,21,28,6.10
2011,04,20,21,29,6.10
2011,04,20,21,30,6.10
2011,04,20,21,31,6.10
2011,04,20,21,32,6.10
2011,04,20,21,33,6.10
2011,04,20,21,34,6.10
2011,04,20,21,35,6.00
2011,04,20,21,36,6.00
2011,04,20,21,37,6.00
2011,04,20,21,38,6.00
2011,04,20,21,39,6.00
2011,04,20,21,40,6.00
2011,04,20,21,41,6.00
2011,04,20,21,42,6.00
2011,04,20,21,43,5.90
2011,04,20,21,44,5.90
2011,04,20,21,45,5.90
2011,04,20,21,46,5.90
2011,04,20,21,47,5.90
2011,04,20,21,48,5.90
2011,04,20,21,49,5.90
2011,04,20,21,50,5.80
2011,04,20,21,51,5.80
2011,04,20,21,52,5.80
2011,04,20,21,53,5.80
2011,04,20,21,54,5.80
2011,04,20,21,55,5.70
2011,04,20,21,56,5.70
2011,04,20,21,57,5.70
2011,04,20,21,58,5.70
2011,04,20,21,59,5.70
2011,04,20,22,00,5.70
2011,04,20,22,01,5.70
2011,04,20,22,02,5.70
2011,04,20,22,03,5.70
2011,04,20,22,04,5.70
2011,04,20,22,05,5.70
2011,04,20,22,06,5.70
2011,04,20,22,07,5.70
2011,04,20,22,08,5.70
2011,04,20,22,09,5.70
2011,04,20,22,10,5.70
2011,04,20,22,11,5.70
2011,04,20,22,12,5.70
2011,04,20,22,13,5.60
2011,04,20,22,14,5.60
2011,04,20,22,15,5.60
2011,04,20,22,16,5.60
2011,04,20,22,17,5.50
2011,04,20,22,18,5.50
2011,04,20,22,19,5.50
2011,04,20,22,20,5.50
2011,04,20,22,21,5.50
2011,04,20,22,22,5.50
2011,04,20,22,23,5.50
2011,04,20,22,24,5.40
2011,04,20,22,25,5.40
2011,04,20,22,26,5.40
2011,04,20,22,27,5.40
2011,04,20,22,28,5.40
2011,04,20,22,29,5.40
2011,04,20,22,30,5.40
2011,04,20,22,31,5.40
2011,04,20,22,32,5.30
2011,04,20,22,33,5.30
2011,04,20,22,34,5.30
2011,04,20,22,35,5.30
2011,04,20,22,36,5.30
2011,04,20,22,37,5.30
2011,04,20,22,38,5.30
2011,04,20,22,39,5.30
2011,04,20,22,40,5.30
2011,04,20,22,41,5.30
2011,04,20,22,42,5.30
2011,04,20,22,43,5.30
2011,04,20,22,44,5.30
2011,04,20,22,45,5.30
2011,04,20,22,46,5.30
2011,04,20,22,47,5.20
2011,04,20,22,48,5.20
2011,04,20,22,49,5.20
2011,04,20,22,50,5.20
2011,04,20,22,51,5.20
2011,04,20,22,52,5.20
2011,04,20,22,53,5.20
2011,04,20,22,54,5.20
2011,04,20,22,55,5.10
2011,04,20,22,56,5.10
2011,04,20,22,57,5.10
2011,04,20,22,58,5.10
2011,04,20,22,59,5.10
2011,04,20,23,00,5.10
2011,04,20,23,01,5.10
2011,04,20,23,02,5.10
2011,04,20,23,03,5.10
2011,04,20,23,04,5.10
2011,04,20,23,05,5.10
2011,04,20,23,06,5.10
2011,04,20,23,07,5.10
2011,04,20,23,08,5.10
2011,04,20,23,09,5.10
2011,04,20,23,10,5.10
2011,04,20,23,11,5.10
2011,04,20,23,12,5.10
2011,04,20,23,13,5.10
2011,04,20,23,14,5.10
2011,04,20,23,15,5.10
2011,04,20,23,16,5.10
2011,04,20,23,17,5.10
2011,04,20,23,18,5.10
2011,04,20,23,19,5.10
2011,04,20,23,20,5.10
2011,04,20,23,21,5.10
2011,04,20,23,22,5.10
2011,04,20,23,23,5.10
2011,04,20,23,24,5.10
2011,04,20,23,25,5.10
2011,04,20,23,26,5.10
2011,04,20,23,27,5.10
2011,04,20,23,28,5.10
2011,04,20,23,29,5.10
2011,04,20,23,30,5.10
2011,04,20,23,31,5.10
2011,04,20,23,32,5.10
2011,04,20,23,33,5.10
2011,04,20,23,34,5.10
2011,04,20,23,35,5.10
2011,04,20,23,36,5.10
2011,04,20,23,37,5.10
2011,04,20,23,38,5.10
2011,04,20,23,39,5.10
2011,04,20,23,40,5.10
2011,04,20,23,41,5.10
2011,04,20,23,42,5.10
2011,04,20,23,43,5.10
2011,04,20,23,44,5.10
2011,04,20,23,45,5.10
2011,04,20,23,46,5.10
2011,04,20,23,47,5.10
2011,04,20,23,48,5.10
2011,04,20,23,49,5.10
2011,04,20,23,50,5.10
2011,04,20,23,51,5.10
2011,04,20,23,52,5.10
2011,04,20,23,53,5.00
2011,04,20,23,54,4.90
2011,04,20,23,55,4.90
2011,04,20,23,56,4.90
2011,04,20,23,57,4.90
2011,04,20,23,58,4.90
2011,04,20,23,59,4.90
